Tracking 29892 objects as of 21-Nov-2024
HD Live streaming from Space Station
objects crossing your sky now

FENGYUN 1C DEB

Track FENGYUN 1C DEB now!
10-day predictions


NORAD ID: 30577
Int'l Code: 1999-025ALT
Perigee: 845.0 km
Apogee: 886.9 km
Inclination: 98.8 °
Period: 102.1 minutes
Semi major axis: 7236 km
RCS: 0.0229 m2 (small)
Launch date: May 10, 1999
Source: People's Republic of China (PRC)
Launch site: Taiyaun Space Center, China (TSC)

Note: This is SATELLITE DEBRIS
Your satellite tracking list
Your tracking list is empty




NASA's NSSDC Master Catalog

Two Line Element Set (TLE):
1 30577U 99025ALT 24325.95637796  .00001327  00000-0  77197-3 0  9992
2 30577  98.8126   2.2780 0028939 297.6546 181.8585 14.10158915913315
Source of the keplerian elements: AFSPC